Time,TemperatureF,DewpointF,PressureIn,WindDirection,WindDirectionDegrees,WindSpeedMPH,WindSpeedGustMPH,Humidity,HourlyPrecipIn,Conditions,Clouds,dailyrainin,SoftwareType,DateUTC
2013-04-14 00:03:00,39.0,32.0,29.11,North,-999,-999.0,-999.0,75,0.00,,,0.00,,2013-04-14 04:03:00,
2013-04-14 00:13:00,39.0,32.0,29.11,North,-999,-999.0,-999.0,75,0.00,,,0.00,,2013-04-14 04:13:00,
2013-04-14 00:23:00,39.0,32.0,29.11,North,-999,-999.0,-999.0,75,0.00,,,0.00,,2013-04-14 04:23:00,
2013-04-14 00:33:00,39.0,32.0,29.11,North,-999,-999.0,-999.0,76,0.00,,,0.00,,2013-04-14 04:33:00,
2013-04-14 00:43:00,39.0,32.0,29.11,North,-999,-999.0,-999.0,76,0.00,,,0.00,,2013-04-14 04:43:00,
2013-04-14 00:52:00,39.0,32.0,29.12,North,-999,-999.0,-999.0,77,0.00,,,0.00,,2013-04-14 04:52:00,
2013-04-14 01:03:00,39.0,32.0,29.12,North,-999,-999.0,-999.0,77,0.00,,,0.00,,2013-04-14 05:03:00,
2013-04-14 01:12:00,39.0,32.0,29.12,North,-999,-999.0,-999.0,77,0.00,,,0.00,,2013-04-14 05:12:00,
2013-04-14 01:23:00,39.0,32.0,29.10,North,-999,-999.0,-999.0,77,0.00,,,0.00,,2013-04-14 05:23:00,
2013-04-14 01:32:00,38.0,31.0,29.11,North,-999,-999.0,-999.0,77,0.00,,,0.00,,2013-04-14 05:32:00,
2013-04-14 01:42:00,38.0,31.0,29.11,North,-999,-999.0,-999.0,77,0.00,,,0.00,,2013-04-14 05:42:00,
2013-04-14 01:53:00,38.0,31.0,29.10,North,-999,-999.0,-999.0,77,0.00,,,0.00,,2013-04-14 05:53:00,
2013-04-14 02:02:00,38.0,32.0,29.10,North,-999,-999.0,-999.0,78,0.00,,,0.00,,2013-04-14 06:02:00,
2013-04-14 02:12:00,38.0,32.0,29.10,North,-999,-999.0,-999.0,78,0.00,,,0.00,,2013-04-14 06:12:00,
2013-04-14 02:22:00,37.0,31.0,29.10,North,-999,-999.0,-999.0,78,0.00,,,0.00,,2013-04-14 06:22:00,
2013-04-14 02:32:00,37.0,31.0,29.10,North,-999,-999.0,-999.0,78,0.00,,,0.00,,2013-04-14 06:32:00,
2013-04-14 02:42:00,37.0,31.0,29.10,North,-999,-999.0,-999.0,78,0.00,,,0.00,,2013-04-14 06:42:00,
2013-04-14 02:52:00,37.0,31.0,29.10,North,-999,-999.0,-999.0,78,0.00,,,0.00,,2013-04-14 06:52:00,
2013-04-14 03:03:00,36.0,30.0,29.09,North,-999,-999.0,-999.0,78,0.00,,,0.00,,2013-04-14 07:03:00,
2013-04-14 03:12:00,36.0,30.0,29.09,North,-999,-999.0,-999.0,78,0.00,,,0.00,,2013-04-14 07:12:00,
2013-04-14 03:22:00,36.0,30.0,29.09,North,-999,-999.0,-999.0,78,0.00,,,0.00,,2013-04-14 07:22:00,
2013-04-14 03:32:00,36.0,30.0,29.10,North,-999,-999.0,-999.0,78,0.00,,,0.00,,2013-04-14 07:32:00,
2013-04-14 03:42:00,36.0,30.0,29.10,North,-999,-999.0,-999.0,78,0.00,,,0.00,,2013-04-14 07:42:00,
2013-04-14 03:52:00,35.0,29.0,29.09,North,-999,-999.0,-999.0,79,0.00,,,0.00,,2013-04-14 07:52:00,
2013-04-14 04:03:00,35.0,29.0,29.10,North,-999,-999.0,-999.0,79,0.00,,,0.00,,2013-04-14 08:03:00,
2013-04-14 04:12:00,35.0,29.0,29.10,North,-999,-999.0,-999.0,79,0.00,,,0.00,,2013-04-14 08:12:00,
2013-04-14 04:23:00,35.0,29.0,29.10,North,-999,-999.0,-999.0,79,0.00,,,0.00,,2013-04-14 08:23:00,
2013-04-14 04:33:00,36.0,30.0,29.10,North,-999,-999.0,-999.0,80,0.00,,,0.00,,2013-04-14 08:33:00,
2013-04-14 04:42:00,36.0,30.0,29.10,North,-999,-999.0,-999.0,80,0.00,,,0.00,,2013-04-14 08:42:00,
2013-04-14 04:52:00,36.0,30.0,29.10,North,-999,-999.0,-999.0,80,0.00,,,0.00,,2013-04-14 08:52:00,
2013-04-14 05:03:00,36.0,30.0,29.11,North,-999,-999.0,-999.0,80,0.00,,,0.00,,2013-04-14 09:03:00,
2013-04-14 05:12:00,36.0,30.0,29.11,North,-999,-999.0,-999.0,80,0.00,,,0.00,,2013-04-14 09:12:00,
2013-04-14 05:22:00,36.0,30.0,29.11,North,-999,-999.0,-999.0,80,0.00,,,0.00,,2013-04-14 09:22:00,
2013-04-14 05:33:00,36.0,30.0,29.12,North,-999,-999.0,-999.0,80,0.00,,,0.00,,2013-04-14 09:33:00,
2013-04-14 05:43:00,36.0,30.0,29.12,North,-999,-999.0,-999.0,80,0.00,,,0.00,,2013-04-14 09:43:00,
2013-04-14 05:54:00,36.0,31.0,29.11,North,-999,-999.0,-999.0,81,0.00,,,0.00,,2013-04-14 09:54:00,
2013-04-14 06:03:00,36.0,31.0,29.11,North,-999,-999.0,-999.0,81,0.00,,,0.00,,2013-04-14 10:03:00,
2013-04-14 06:12:00,36.0,31.0,29.11,North,-999,-999.0,-999.0,81,0.00,,,0.00,,2013-04-14 10:12:00,
2013-04-14 06:23:00,36.0,31.0,29.11,North,-999,-999.0,-999.0,81,0.00,,,0.00,,2013-04-14 10:23:00,
2013-04-14 06:33:00,36.0,31.0,29.11,North,-999,-999.0,-999.0,81,0.00,,,0.00,,2013-04-14 10:33:00,
2013-04-14 06:42:00,36.0,31.0,29.11,North,-999,-999.0,-999.0,81,0.00,,,0.00,,2013-04-14 10:42:00,
2013-04-14 06:52:00,36.0,31.0,29.12,North,-999,-999.0,-999.0,81,0.00,,,0.00,,2013-04-14 10:52:00,
2013-04-14 07:02:00,36.0,31.0,29.12,North,-999,-999.0,-999.0,81,0.00,,,0.00,,2013-04-14 11:02:00,
2013-04-14 07:12:00,36.0,31.0,29.12,North,-999,-999.0,-999.0,81,0.00,,,0.00,,2013-04-14 11:12:00,
2013-04-14 07:23:00,36.0,31.0,29.12,North,-999,-999.0,-999.0,81,0.00,,,0.00,,2013-04-14 11:23:00,
2013-04-14 07:32:00,37.0,32.0,29.13,North,-999,-999.0,-999.0,81,0.00,,,0.00,,2013-04-14 11:32:00,
2013-04-14 07:42:00,37.0,32.0,29.13,North,-999,-999.0,-999.0,81,0.00,,,0.00,,2013-04-14 11:42:00,
2013-04-14 07:53:00,37.0,32.0,29.14,North,-999,-999.0,-999.0,81,0.00,,,0.00,,2013-04-14 11:53:00,
2013-04-14 08:02:00,37.0,32.0,29.14,North,-999,-999.0,-999.0,81,0.00,,,0.00,,2013-04-14 12:02:00,
2013-04-14 08:12:00,37.0,32.0,29.14,North,-999,-999.0,-999.0,81,0.00,,,0.00,,2013-04-14 12:12:00,
2013-04-14 08:22:00,38.0,32.0,29.14,North,-999,-999.0,-999.0,80,0.00,,,0.00,,2013-04-14 12:22:00,
2013-04-14 08:32:00,39.0,33.0,29.14,North,-999,-999.0,-999.0,80,0.00,,,0.00,,2013-04-14 12:32:00,
2013-04-14 08:42:00,39.0,33.0,29.14,North,-999,-999.0,-999.0,80,0.00,,,0.00,,2013-04-14 12:42:00,
2013-04-14 08:52:00,39.0,33.0,29.14,North,-999,-999.0,-999.0,80,0.00,,,0.00,,2013-04-14 12:52:00,
2013-04-14 09:02:00,40.0,34.0,29.14,North,-999,-999.0,-999.0,78,0.00,,,0.00,,2013-04-14 13:02:00,
2013-04-14 09:12:00,40.0,34.0,29.14,North,-999,-999.0,-999.0,78,0.00,,,0.00,,2013-04-14 13:12:00,
2013-04-14 09:23:00,42.0,35.0,29.14,North,-999,-999.0,-999.0,76,0.00,,,0.00,,2013-04-14 13:23:00,
2013-04-14 09:33:00,42.0,34.0,29.14,North,-999,-999.0,-999.0,74,0.00,,,0.00,,2013-04-14 13:33:00,
2013-04-14 09:42:00,42.0,34.0,29.14,North,-999,-999.0,-999.0,74,0.00,,,0.00,,2013-04-14 13:42:00,
2013-04-14 09:52:00,42.0,34.0,29.14,North,-999,-999.0,-999.0,73,0.00,,,0.00,,2013-04-14 13:52:00,
2013-04-14 10:02:00,43.0,35.0,29.14,North,-999,-999.0,-999.0,72,0.00,,,0.00,,2013-04-14 14:02:00,
2013-04-14 10:12:00,43.0,35.0,29.14,North,-999,-999.0,-999.0,72,0.00,,,0.00,,2013-04-14 14:12:00,
2013-04-14 10:22:00,44.0,34.0,29.14,North,-999,-999.0,-999.0,68,0.00,,,0.00,,2013-04-14 14:22:00,
2013-04-14 10:32:00,44.0,34.0,29.14,North,-999,-999.0,-999.0,67,0.00,,,0.00,,2013-04-14 14:32:00,
2013-04-14 10:42:00,44.0,34.0,29.14,North,-999,-999.0,-999.0,67,0.00,,,0.00,,2013-04-14 14:42:00,
2013-04-14 10:52:00,43.0,33.0,29.15,North,-999,-999.0,-999.0,68,0.00,,,0.00,,2013-04-14 14:52:00,
2013-04-14 11:03:00,44.0,34.0,29.15,North,-999,-999.0,-999.0,68,0.00,,,0.00,,2013-04-14 15:03:00,
2013-04-14 11:12:00,44.0,34.0,29.15,North,-999,-999.0,-999.0,68,0.00,,,0.00,,2013-04-14 15:12:00,
2013-04-14 11:22:00,44.0,34.0,29.15,North,-999,-999.0,-999.0,68,0.00,,,0.00,,2013-04-14 15:22:00,
2013-04-14 11:33:00,44.0,34.0,29.15,North,-999,-999.0,-999.0,68,0.00,,,0.00,,2013-04-14 15:33:00,
2013-04-14 11:43:00,44.0,34.0,29.15,North,-999,-999.0,-999.0,68,0.00,,,0.00,,2013-04-14 15:43:00,
2013-04-14 12:05:00,49.0,35.0,29.15,North,-999,-999.0,-999.0,59,0.00,,,0.00,,2013-04-14 16:05:00,
2013-04-14 12:13:00,49.0,35.0,29.15,North,-999,-999.0,-999.0,59,0.00,,,0.00,,2013-04-14 16:13:00,
2013-04-14 12:23:00,48.0,34.0,29.16,North,-999,-999.0,-999.0,58,0.00,,,0.00,,2013-04-14 16:23:00,
2013-04-14 12:33:00,48.0,34.0,29.15,North,-999,-999.0,-999.0,59,0.00,,,0.00,,2013-04-14 16:33:00,
2013-04-14 12:43:00,48.0,34.0,29.15,North,-999,-999.0,-999.0,59,0.00,,,0.00,,2013-04-14 16:43:00,
2013-04-14 12:53:00,50.0,33.0,29.16,North,-999,-999.0,-999.0,52,0.00,,,0.00,,2013-04-14 16:53:00,
2013-04-14 13:02:00,48.0,33.0,29.16,North,-999,-999.0,-999.0,55,0.00,,,0.00,,2013-04-14 17:02:00,
2013-04-14 13:13:00,48.0,33.0,29.16,North,-999,-999.0,-999.0,55,0.00,,,0.00,,2013-04-14 17:13:00,
2013-04-14 13:22:00,50.0,34.0,29.15,North,-999,-999.0,-999.0,54,0.00,,,0.00,,2013-04-14 17:22:00,
2013-04-14 13:33:00,49.0,32.0,29.16,North,-999,-999.0,-999.0,52,0.00,,,0.00,,2013-04-14 17:33:00,
2013-04-14 13:42:00,49.0,32.0,29.16,North,-999,-999.0,-999.0,52,0.00,,,0.00,,2013-04-14 17:42:00,
2013-04-14 13:52:00,48.0,32.0,29.16,North,-999,-999.0,-999.0,53,0.00,,,0.00,,2013-04-14 17:52:00,
2013-04-14 14:03:00,50.0,31.0,29.16,North,-999,-999.0,-999.0,48,0.00,,,0.00,,2013-04-14 18:03:00,
2013-04-14 14:12:00,50.0,31.0,29.16,North,-999,-999.0,-999.0,48,0.00,,,0.00,,2013-04-14 18:12:00,
2013-04-14 14:22:00,49.0,31.0,29.16,North,-999,-999.0,-999.0,49,0.00,,,0.00,,2013-04-14 18:22:00,
2013-04-14 14:33:00,49.0,31.0,29.17,North,-999,-999.0,-999.0,49,0.00,,,0.00,,2013-04-14 18:33:00,
2013-04-14 14:43:00,49.0,31.0,29.17,North,-999,-999.0,-999.0,49,0.00,,,0.00,,2013-04-14 18:43:00,
2013-04-14 14:54:00,49.0,32.0,29.17,North,-999,-999.0,-999.0,51,0.00,,,0.00,,2013-04-14 18:54:00,
2013-04-14 15:04:00,48.0,31.0,29.18,North,-999,-999.0,-999.0,52,0.00,,,0.00,,2013-04-14 19:04:00,
2013-04-14 15:12:00,48.0,31.0,29.18,North,-999,-999.0,-999.0,52,0.00,,,0.00,,2013-04-14 19:12:00,
2013-04-14 15:22:00,48.0,31.0,29.18,North,-999,-999.0,-999.0,52,0.00,,,0.00,,2013-04-14 19:22:00,
2013-04-14 15:32:00,48.0,31.0,29.19,North,-999,-999.0,-999.0,51,0.00,,,0.00,,2013-04-14 19:32:00,
2013-04-14 15:43:00,48.0,31.0,29.19,North,-999,-999.0,-999.0,51,0.00,,,0.00,,2013-04-14 19:43:00,
2013-04-14 15:53:00,47.0,31.0,29.19,North,-999,-999.0,-999.0,53,0.00,,,0.00,,2013-04-14 19:53:00,
2013-04-14 16:03:00,46.0,29.0,29.19,North,-999,-999.0,-999.0,52,0.00,,,0.00,,2013-04-14 20:03:00,
2013-04-14 16:13:00,46.0,29.0,29.19,North,-999,-999.0,-999.0,52,0.00,,,0.00,,2013-04-14 20:13:00,
2013-04-14 16:22:00,46.0,30.0,29.19,North,-999,-999.0,-999.0,53,0.00,,,0.00,,2013-04-14 20:22:00,
2013-04-14 16:33:00,49.0,32.0,29.19,North,-999,-999.0,-999.0,52,0.00,,,0.00,,2013-04-14 20:33:00,
2013-04-14 16:43:00,49.0,32.0,29.19,North,-999,-999.0,-999.0,52,0.00,,,0.00,,2013-04-14 20:43:00,
2013-04-14 16:52:00,50.0,32.0,29.19,North,-999,-999.0,-999.0,50,0.00,,,0.00,,2013-04-14 20:52:00,
2013-04-14 17:02:00,46.0,29.0,29.21,North,-999,-999.0,-999.0,51,0.00,,,0.00,,2013-04-14 21:02:00,
2013-04-14 17:12:00,46.0,29.0,29.21,North,-999,-999.0,-999.0,51,0.00,,,0.00,,2013-04-14 21:12:00,
2013-04-14 17:23:00,46.0,29.0,29.22,North,-999,-999.0,-999.0,51,0.00,,,0.00,,2013-04-14 21:23:00,
2013-04-14 17:33:00,48.0,30.0,29.22,North,-999,-999.0,-999.0,50,0.00,,,0.00,,2013-04-14 21:33:00,
2013-04-14 17:43:00,48.0,30.0,29.22,North,-999,-999.0,-999.0,50,0.00,,,0.00,,2013-04-14 21:43:00,
2013-04-14 17:53:00,50.0,32.0,29.23,North,-999,-999.0,-999.0,49,0.00,,,0.00,,2013-04-14 21:53:00,
2013-04-14 18:03:00,53.0,34.0,29.25,North,-999,-999.0,-999.0,48,0.00,,,0.00,,2013-04-14 22:03:00,
2013-04-14 18:13:00,53.0,34.0,29.25,North,-999,-999.0,-999.0,48,0.00,,,0.00,,2013-04-14 22:13:00,
2013-04-14 18:23:00,50.0,32.0,29.25,North,-999,-999.0,-999.0,49,0.00,,,0.00,,2013-04-14 22:23:00,
2013-04-14 18:33:00,48.0,30.0,29.27,North,-999,-999.0,-999.0,50,0.00,,,0.00,,2013-04-14 22:33:00,
2013-04-14 18:44:00,48.0,30.0,29.27,North,-999,-999.0,-999.0,50,0.00,,,0.00,,2013-04-14 22:44:00,
2013-04-14 18:53:00,47.0,30.0,29.27,North,-999,-999.0,-999.0,51,0.00,,,0.00,,2013-04-14 22:53:00,
2013-04-14 19:02:00,46.0,29.0,29.27,North,-999,-999.0,-999.0,52,0.00,,,0.00,,2013-04-14 23:02:00,
2013-04-14 19:12:00,46.0,29.0,29.27,North,-999,-999.0,-999.0,52,0.00,,,0.00,,2013-04-14 23:12:00,
2013-04-14 19:23:00,45.0,29.0,29.27,North,-999,-999.0,-999.0,53,0.00,,,0.00,,2013-04-14 23:23:00,
2013-04-14 19:33:00,44.0,28.0,29.28,North,-999,-999.0,-999.0,54,0.00,,,0.00,,2013-04-14 23:33:00,
2013-04-14 19:43:00,44.0,28.0,29.28,North,-999,-999.0,-999.0,54,0.00,,,0.00,,2013-04-14 23:43:00,
2013-04-14 19:52:00,42.0,27.0,29.29,North,-999,-999.0,-999.0,56,0.00,,,0.00,,2013-04-14 23:52:00,
2013-04-14 20:02:00,40.0,27.0,29.30,North,-999,-999.0,-999.0,60,0.00,,,0.00,,2013-04-15 00:02:00,
2013-04-14 20:12:00,40.0,27.0,29.30,North,-999,-999.0,-999.0,60,0.00,,,0.00,,2013-04-15 00:12:00,
2013-04-14 20:23:00,40.0,28.0,29.32,North,-999,-999.0,-999.0,61,0.00,,,0.00,,2013-04-15 00:23:00,
2013-04-14 20:33:00,39.0,27.0,29.32,North,-999,-999.0,-999.0,63,0.00,,,0.00,,2013-04-15 00:33:00,
2013-04-14 20:42:00,39.0,27.0,29.32,North,-999,-999.0,-999.0,63,0.00,,,0.00,,2013-04-15 00:42:00,
2013-04-14 20:52:00,38.0,27.0,29.32,North,-999,-999.0,-999.0,64,0.00,,,0.00,,2013-04-15 00:52:00,
2013-04-14 21:02:00,38.0,27.0,29.33,North,-999,-999.0,-999.0,65,0.00,,,0.00,,2013-04-15 01:02:00,
2013-04-14 21:13:00,38.0,27.0,29.33,North,-999,-999.0,-999.0,65,0.00,,,0.00,,2013-04-15 01:13:00,
2013-04-14 21:33:00,37.0,26.0,29.35,North,-999,-999.0,-999.0,65,0.00,,,0.00,,2013-04-15 01:33:00,
2013-04-14 21:42:00,37.0,26.0,29.35,North,-999,-999.0,-999.0,65,0.00,,,0.00,,2013-04-15 01:42:00,
2013-04-14 21:52:00,37.0,27.0,29.36,North,-999,-999.0,-999.0,66,0.00,,,0.00,,2013-04-15 01:52:00,
2013-04-14 22:03:00,37.0,27.0,29.36,North,-999,-999.0,-999.0,66,0.00,,,0.00,,2013-04-15 02:03:00,
2013-04-14 22:12:00,37.0,27.0,29.36,North,-999,-999.0,-999.0,66,0.00,,,0.00,,2013-04-15 02:12:00,
2013-04-14 22:22:00,35.0,25.0,29.37,North,-999,-999.0,-999.0,67,0.00,,,0.00,,2013-04-15 02:22:00,
2013-04-14 22:32:00,34.0,25.0,29.37,North,-999,-999.0,-999.0,68,0.00,,,0.00,,2013-04-15 02:32:00,
2013-04-14 22:42:00,34.0,25.0,29.37,North,-999,-999.0,-999.0,68,0.00,,,0.00,,2013-04-15 02:42:00,
2013-04-14 22:53:00,34.0,25.0,29.37,North,-999,-999.0,-999.0,69,0.00,,,0.00,,2013-04-15 02:53:00,
2013-04-14 23:03:00,34.0,25.0,29.37,North,-999,-999.0,-999.0,70,0.00,,,0.00,,2013-04-15 03:03:00,
2013-04-14 23:12:00,34.0,25.0,29.37,North,-999,-999.0,-999.0,70,0.00,,,0.00,,2013-04-15 03:12:00,
2013-04-14 23:22:00,33.0,24.0,29.37,North,-999,-999.0,-999.0,70,0.00,,,0.00,,2013-04-15 03:22:00,
2013-04-14 23:33:00,33.0,25.0,29.37,North,-999,-999.0,-999.0,71,0.00,,,0.00,,2013-04-15 03:33:00,
2013-04-14 23:43:00,33.0,25.0,29.37,North,-999,-999.0,-999.0,71,0.00,,,0.00,,2013-04-15 03:43:00,
2013-04-14 23:55:00,32.0,24.0,29.37,North,-999,-999.0,-999.0,72,0.00,,,0.00,,2013-04-15 03:55:00,